This is the latest recevied weather packets stored in our database for station/object KU9TRY. If no packets are shown the sender has not sent any weather packets the latest 10 day(s).
| Time | Temp. | Humidity | Pressure | Rain* | Wind** | Luminosity | Snow |
|---|---|---|---|---|---|---|---|
| 1787612716 | 26.11° C | 56% | 1016.2 hPa | 0 mm | - | 27 W/m² | - |
| 1787612412 | 26.11° C | 58% | 1016.3 hPa | 0 mm | - | 27 W/m² | - |
| 1787612107 | 26.11° C | 60% | 1016.3 hPa | 0 mm | - | 28 W/m² | - |
| 1787611803 | 26.11° C | 59% | 1016.3 hPa | 0 mm | - | 33 W/m² | - |
| 1787611499 | 26.11° C | 55% | 1016.3 hPa | 0 mm | - | 40 W/m² | - |
| 1787611194 | 26.11° C | 57% | 1016.2 hPa | 0 mm | - | 33 W/m² | - |
| 1787610890 | 26.11° C | 57% | 1016.4 hPa | 0 mm | - | 34 W/m² | - |
| 1787610585 | 26.11° C | 59% | 1016.3 hPa | 0 mm | - | 33 W/m² | - |
| 1787610280 | 26.11° C | 57% | 1016.3 hPa | 0 mm | - | 34 W/m² | - |
| 1787609979 | 26.67° C | 58% | 1016.3 hPa | 0 mm | - | 34 W/m² | - |
| 1787609680 | 26.67° C | 56% | 1016.3 hPa | 0 mm | - | 34 W/m² | - |
| 1787609374 | 26.11° C | 58% | 1016.6 hPa | 0 mm | - | 34 W/m² | - |
| 1787609073 | 26.11° C | 58% | 1016.5 hPa | 0 mm | - | 34 W/m² | - |
| 1787608768 | 26.67° C | 60% | 1016.4 hPa | 0 mm | - | 34 W/m² | - |
| 1787608469 | 26.67° C | 57% | 1016.5 hPa | 0 mm | - | 34 W/m² | - |
| 1787608165 | 26.67° C | 57% | 1016.4 hPa | 0 mm | - | 34 W/m² | - |
| 1787607861 | 26.67° C | 56% | 1016.6 hPa | 0 mm | - | 35 W/m² | - |
| 1787607558 | 26.67° C | 54% | 1016.5 hPa | 0 mm | - | 35 W/m² | - |
| 1787607254 | 26.67° C | 57% | 1016.4 hPa | 0 mm | - | 36 W/m² | - |
| 1787606951 | 27.78° C | 55% | 1016.5 hPa | 0 mm | - | 36 W/m² | - |
| 1787606649 | 27.78° C | 52% | 1016.6 hPa | 0 mm | - | 37 W/m² | - |
| 1787606343 | 27.78° C | 53% | 1016.5 hPa | 0 mm | - | 37 W/m² | - |
| 1787606038 | 27.78° C | 54% | 1016.4 hPa | 0 mm | - | 41 W/m² | - |
| 1787605736 | 28.33° C | 51% | 1016.4 hPa | 0 mm | - | 38 W/m² | - |
| 1787605432 | 28.33° C | 45% | 1016.6 hPa | 0 mm | - | 39 W/m² | - |
* Rain latest hour (hover to see other rain measurements)
** Current wind speed in m/s (hover to see current wind gust speed)